| time (UTC) | temp C | wind direction | speed KPH | gust KPH | rain 1hr cm | rain 24hr cm | rain mn cm | humidity % | barometer mb |
| 20260505130306 | 14 | 122 | 4.8 | 11.3 | 0.00 | 0.00 | 0.00 | 64 | 1021.7 |
| 20260505124807 | 11 | 80 | 3.2 | 6.4 | 0.00 | 0.00 | 0.00 | 78 | 1022.4 |
| 20260505124506 | 11 | 53 | 1.6 | 3.2 | 0.00 | 0.00 | 0.00 | 79 | 1022.1 |
| 20260505124206 | 11 | 73 | 0.0 | 3.2 | 0.00 | 0.00 | 0.00 | 80 | 1021.9 |
| 20260505123307 | 11 | 157 | 1.6 | 3.2 | 0.00 | 0.00 | 0.00 | 80 | 1022.4 |
| 20260505123007 | 11 | 231 | 1.6 | 3.2 | 0.00 | 0.00 | 0.00 | 81 | 1022.0 |
| 20260505122707 | 11 | 246 | 0.0 | 3.2 | 0.00 | 0.00 | 0.00 | 81 | 1022.3 |
| 20260505122407 | 11 | 263 | 0.0 | 3.2 | 0.00 | 0.00 | 0.00 | 82 | 1021.9 |
| 20260505122107 | 11 | 82 | 0.0 | 3.2 | 0.00 | 0.00 | 0.00 | 81 | 1022.0 |
| 20260505121507 | 11 | 90 | 0.0 | 3.2 | 0.00 | 0.00 | 0.00 | 82 | 1022.2 |
| 20260505121206 | 11 | 78 | 0.0 | 3.2 | 0.00 | 0.00 | 0.00 | 83 | 1022.0 |
| 20260505120607 | 12 | 68 | 0.0 | 3.2 | 0.00 | 0.00 | 0.00 | 81 | 1022.0 |
| 20260505120306 | 11 | 18 | 0.0 | 3.2 | 0.00 | 0.00 | 0.00 | 80 | 1021.9 |
| 20260505120007 | 11 | 357 | 0.0 | 3.2 | 0.00 | 0.00 | 0.00 | 80 | 1021.9 |
| 20260505115706 | 11 | 27 | 0.0 | 3.2 | 0.00 | 0.00 | 0.00 | 79 | 1022.0 |
| 20260505115407 | 11 | 89 | 0.0 | 3.2 | 0.00 | 0.00 | 0.00 | 79 | 1021.9 |
| 20260505115107 | 12 | 81 | 0.0 | 3.2 | 0.00 | 0.00 | 0.00 | 79 | 1021.8 |
| 20260505114507 | 12 | 73 | 0.0 | 3.2 | 0.00 | 0.00 | 0.00 | 79 | 1021.6 |
| 20260505114207 | 12 | 317 | 0.0 | 3.2 | 0.00 | 0.00 | 0.00 | 80 | 1021.8 |
| 20260505113306 | 12 | 334 | 1.6 | 3.2 | 0.00 | 0.00 | 0.00 | 74 | 1021.8 |
| 20260505113006 | 12 | 297 | 0.0 | 3.2 | 0.00 | 0.00 | 0.00 | 73 | 1021.6 |
| 20260505112706 | 12 | 282 | 1.6 | 3.2 | 0.00 | 0.00 | 0.00 | 72 | 1021.5 |
| 20260505112406 | 12 | 302 | 0.0 | 3.2 | 0.00 | 0.00 | 0.00 | 73 | 1021.5 |
| 20260505112106 | 13 | 309 | 0.0 | 3.2 | 0.00 | 0.00 | 0.00 | 73 | 1021.7 |
| 20260505111806 | 13 | 78 | 0.0 | 6.4 | 0.00 | 0.00 | 0.00 | 71 | 1021.5 |
| 20260505111506 | 13 | 103 | 0.0 | 6.4 | 0.00 | 0.00 | 0.00 | 67 | 1021.7 |
| 20260505110907 | 13 | 106 | 3.2 | 6.4 | 0.00 | 0.00 | 0.00 | 66 | 1021.8 |
| 20260505110607 | 13 | 94 | 3.2 | 6.4 | 0.00 | 0.00 | 0.00 | 69 | 1021.7 |
| 20260505110306 | 13 | 88 | 1.6 | 6.4 | 0.00 | 0.03 | 0.00 | 67 | 1021.6 |
| 20260505102107 | 15 | 86 | 0.0 | 6.4 | 0.00 | 0.10 | 0.00 | 67 | 1021.2 |
| 20260505101806 | 15 | 82 | 1.6 | 6.4 | 0.00 | 0.10 | 0.00 | 62 | 1021.4 |
| 20260505101506 | 15 | 77 | 3.2 | 6.4 | 0.00 | 0.10 | 0.00 | 60 | 1021.5 |
| 20260505101208 | 15 | 46 | 0.0 | 3.2 | 0.00 | 0.10 | 0.00 | 62 | 1021.2 |
| 20260505100607 | 15 | 0 | 0.0 | 0.0 | 0.00 | 0.10 | 0.00 | 60 | 1021.2 |
| 20260505100007 | 15 | 0 | 0.0 | 0.0 | 0.00 | 0.10 | 0.00 | 59 | 1021.3 |
| 20260505095706 | 15 | 0 | 0.0 | 0.0 | 0.00 | 0.10 | 0.00 | 59 | 1021.3 |
| 20260505095406 | 16 | 0 | 0.0 | 0.0 | 0.00 | 0.10 | 0.00 | 58 | 1021.1 |
| 20260505094808 | 16 | 0 | 0.0 | 0.0 | 0.00 | 0.10 | 0.00 | 53 | 1021.3 |
| 20260505094208 | 16 | 0 | 0.0 | 0.0 | 0.00 | 0.10 | 0.00 | 49 | 1021.1 |
| 20260505093608 | 16 | 325 | 0.0 | 3.2 | 0.00 | 0.10 | 0.00 | 49 | 1021.1 |
| 20260505093008 | 17 | 328 | 0.0 | 3.2 | 0.00 | 0.10 | 0.00 | 49 | 1021.0 |
| 20260505092707 | 17 | 327 | 1.6 | 3.2 | 0.00 | 0.10 | 0.00 | 49 | 1021.5 |
| 20260505092407 | 17 | 328 | 1.6 | 3.2 | 0.00 | 0.10 | 0.00 | 45 | 1021.1 |
| 20260505092107 | 18 | 331 | 1.6 | 3.2 | 0.00 | 0.10 | 0.00 | 44 | 1021.3 |
| 20260505091807 | 18 | 343 | 3.2 | 3.2 | 0.00 | 0.10 | 0.00 | 42 | 1020.8 |
| 20260505091508 | 18 | 351 | 3.2 | 3.2 | 0.00 | 0.13 | 0.00 | 40 | 1021.1 |
| 20260505090307 | 18 | 305 | 3.2 | 6.4 | 0.00 | 0.13 | 0.00 | 42 | 1020.9 |
| 20260505090006 | 18 | 312 | 3.2 | 6.4 | 0.00 | 0.15 | 0.00 | 42 | 1021.1 |
| 20260505085706 | 18 | 325 | 3.2 | 6.4 | 0.00 | 0.15 | 0.00 | 43 | 1021.0 |
| 20260505085407 | 18 | 326 | 1.6 | 6.4 | 0.00 | 0.20 | 0.00 | 45 | 1021.1 |
| 20260505085107 | 18 | 326 | 3.2 | 6.4 | 0.00 | 0.23 | 0.00 | 41 | 1021.0 |
| 20260505084508 | 18 | 317 | 3.2 | 6.4 | 0.00 | 0.28 | 0.00 | 41 | 1020.7 |
| 20260505084206 | 19 | 321 | 3.2 | 6.4 | 0.00 | 0.28 | 0.00 | 43 | 1020.7 |
| 20260505083307 | 19 | 346 | 3.2 | 6.4 | 0.00 | 0.28 | 0.00 | 42 | 1020.8 |
| 20260505083009 | 19 | 350 | 1.6 | 6.4 | 0.00 | 0.28 | 0.00 | 40 | 1020.7 |
| 20260505082707 | 19 | 346 | 1.6 | 6.4 | 0.00 | 0.28 | 0.00 | 39 | 1020.9 |
| 20260505082407 | 19 | 334 | 1.6 | 6.4 | 0.00 | 0.28 | 0.00 | 40 | 1020.6 |
| 20260505082107 | 19 | 314 | 3.2 | 6.4 | 0.00 | 0.28 | 0.00 | 39 | 1020.8 |
| 20260505081807 | 19 | 315 | 1.6 | 6.4 | 0.00 | 0.28 | 0.00 | 41 | 1020.7 |
| 20260505081206 | 19 | 309 | 3.2 | 6.4 | 0.00 | 0.28 | 0.00 | 44 | 1020.9 |
| 20260505080607 | 19 | 292 | 3.2 | 6.4 | 0.00 | 0.28 | 0.00 | 42 | 1020.9 |
| 20260505080308 | 19 | 295 | 1.6 | 6.4 | 0.00 | 0.28 | 0.00 | 43 | 1020.6 |
| 20260505080008 | 19 | 302 | 3.2 | 9.7 | 0.00 | 0.28 | 0.00 | 44 | 1020.7 |
| 20260505075706 | 19 | 307 | 4.8 | 9.7 | 0.00 | 0.30 | 0.00 | 40 | 1020.8 |
| 20260505075107 | 19 | 306 | 4.8 | 6.4 | 0.00 | 0.36 | 0.00 | 42 | 1020.9 |
| 20260505074806 | 20 | 318 | 3.2 | 6.4 | 0.00 | 0.36 | 0.00 | 42 | 1020.6 |
| 20260505074506 | 20 | 328 | 4.8 | 6.4 | 0.00 | 0.36 | 0.00 | 41 | 1020.8 |
| 20260505074206 | 20 | 329 | 3.2 | 6.4 | 0.00 | 0.38 | 0.00 | 39 | 1020.6 |
| 20260505073906 | 20 | 323 | 1.6 | 6.4 | 0.00 | 0.38 | 0.00 | 40 | 1020.6 |
| 20260505073307 | 20 | 321 | 3.2 | 6.4 | 0.00 | 0.38 | 0.00 | 39 | 1021.0 |
| 20260505073007 | 20 | 326 | 3.2 | 6.4 | 0.00 | 0.38 | 0.00 | 36 | 1021.1 |
| 20260505072707 | 20 | 333 | 3.2 | 9.7 | 0.00 | 0.38 | 0.00 | 38 | 1020.8 |
| 20260505072407 | 20 | 329 | 3.2 | 9.7 | 0.00 | 0.38 | 0.00 | 37 | 1020.8 |
| 20260505071807 | 20 | 337 | 3.2 | 9.7 | 0.00 | 0.38 | 0.00 | 36 | 1020.8 |
| 20260505071506 | 20 | 329 | 1.6 | 9.7 | 0.00 | 0.38 | 0.00 | 39 | 1020.9 |
| 20260505070906 | 20 | 316 | 4.8 | 9.7 | 0.00 | 0.43 | 0.00 | 36 | 1020.7 |
| 20260505070306 | 20 | 314 | 3.2 | 9.7 | 0.00 | 0.43 | 0.00 | 37 | 1021.0 |
| 20260505070006 | 20 | 316 | 4.8 | 6.4 | 0.00 | 0.43 | 0.00 | 38 | 1020.9 |
| 20260505065706 | 20 | 311 | 3.2 | 9.7 | 0.00 | 0.43 | 0.00 | 37 | 1020.9 |
| 20260505065406 | 20 | 305 | 3.2 | 9.7 | 0.00 | 0.43 | 0.00 | 37 | 1020.7 |
| 20260505065106 | 20 | 302 | 4.8 | 9.7 | 0.00 | 0.43 | 0.00 | 38 | 1020.8 |
| 20260505064806 | 20 | 306 | 4.8 | 9.7 | 0.00 | 0.43 | 0.00 | 39 | 1020.7 |
| 20260505064507 | 20 | 312 | 3.2 | 9.7 | 0.00 | 0.43 | 0.00 | 38 | 1020.8 |
| 20260505064207 | 20 | 326 | 3.2 | 11.3 | 0.00 | 0.43 | 0.00 | 38 | 1020.9 |
| 20260505063607 | 20 | 332 | 3.2 | 11.3 | 0.00 | 0.43 | 0.00 | 36 | 1021.1 |
| 20260505063007 | 20 | 339 | 4.8 | 11.3 | 0.00 | 0.46 | 0.00 | 37 | 1020.8 |
| 20260505062707 | 20 | 322 | 3.2 | 11.3 | 0.00 | 0.46 | 0.00 | 38 | 1020.8 |
| 20260505062406 | 20 | 325 | 6.4 | 11.3 | 0.00 | 0.46 | 0.00 | 35 | 1020.9 |
| 20260505062106 | 20 | 315 | 4.8 | 11.3 | 0.00 | 0.51 | 0.00 | 36 | 1020.8 |
| 20260505061507 | 20 | 318 | 3.2 | 11.3 | 0.00 | 0.53 | 0.00 | 37 | 1020.8 |
| 20260505061207 | 20 | 316 | 4.8 | 9.7 | 0.00 | 0.61 | 0.00 | 39 | 1020.8 |
| 20260505060906 | 21 | 321 | 3.2 | 9.7 | 0.00 | 0.61 | 0.00 | 37 | 1020.5 |
| 20260505060306 | 21 | 308 | 3.2 | 9.7 | 0.00 | 0.61 | 0.00 | 39 | 1020.7 |
| 20260505060006 | 21 | 315 | 1.6 | 9.7 | 0.00 | 0.61 | 0.00 | 38 | 1020.6 |
| 20260505055706 | 21 | 316 | 3.2 | 9.7 | 0.00 | 0.61 | 0.00 | 34 | 1020.6 |
| 20260505055406 | 21 | 312 | 3.2 | 9.7 | 0.00 | 0.61 | 0.00 | 37 | 1020.5 |
| 20260505055107 | 20 | 302 | 3.2 | 9.7 | 0.00 | 0.61 | 0.00 | 35 | 1020.6 |
| 20260505054807 | 20 | 299 | 4.8 | 9.7 | 0.00 | 0.61 | 0.00 | 35 | 1020.4 |
| 20260505054506 | 20 | 313 | 4.8 | 9.7 | 0.00 | 0.61 | 0.00 | 39 | 1020.6 |
| 20260505054207 | 20 | 325 | 3.2 | 12.9 | 0.00 | 0.61 | 0.00 | 37 | 1020.5 |
| 20260505053906 | 20 | 318 | 4.8 | 12.9 | 0.00 | 0.61 | 0.00 | 35 | 1020.6 |
| 20260505053606 | 21 | 321 | 3.2 | 12.9 | 0.00 | 0.61 | 0.00 | 37 | 1020.6 |
| 20260505053006 | 21 | 311 | 3.2 | 11.3 | 0.00 | 0.61 | 0.00 | 37 | 1020.7 |
| 20260505052707 | 21 | 312 | 6.4 | 11.3 | 0.00 | 0.61 | 0.00 | 38 | 1020.6 |
| 20260505052407 | 20 | 326 | 4.8 | 11.3 | 0.00 | 0.61 | 0.00 | 36 | 1020.7 |
| 20260505052107 | 20 | 337 | 4.8 | 11.3 | 0.00 | 0.61 | 0.00 | 39 | 1020.7 |
| 20260505051806 | 21 | 345 | 4.8 | 9.7 | 0.00 | 0.61 | 0.00 | 36 | 1020.7 |
| 20260505051507 | 21 | 342 | 3.2 | 9.7 | 0.00 | 0.61 | 0.00 | 38 | 1020.5 |
| 20260505051207 | 21 | 342 | 4.8 | 11.3 | 0.00 | 0.61 | 0.00 | 36 | 1020.7 |
| 20260505050906 | 21 | 321 | 3.2 | 11.3 | 0.00 | 0.61 | 0.00 | 39 | 1020.8 |
| 20260505050607 | 21 | 315 | 6.4 | 11.3 | 0.00 | 0.61 | 0.00 | 35 | 1020.6 |
| 20260505050306 | 20 | 306 | 3.2 | 9.7 | 0.00 | 0.61 | 0.00 | 40 | 1021.0 |
| 20260505041208 | 21 | 353 | 3.2 | 6.4 | 0.00 | 0.61 | 0.00 | 29 | 1021.3 |
| 20260505040307 | 20 | 301 | 3.2 | 9.7 | 0.00 | 0.61 | 0.00 | 35 | 1021.4 |
| 20260505040007 | 20 | 308 | 3.2 | 9.7 | 0.00 | 0.61 | 0.00 | 38 | 1021.3 |
| 20260505035706 | 20 | 314 | 4.8 | 6.4 | 0.00 | 0.61 | 0.00 | 36 | 1021.5 |
| 20260505035406 | 20 | 322 | 3.2 | 9.7 | 0.00 | 0.61 | 0.00 | 28 | 1021.6 |
| 20260505035107 | 20 | 322 | 3.2 | 9.7 | 0.00 | 0.61 | 0.00 | 33 | 1021.4 |
| 20260505034807 | 20 | 321 | 3.2 | 9.7 | 0.00 | 0.61 | 0.00 | 29 | 1021.6 |
| 20260505034507 | 20 | 312 | 1.6 | 6.4 | 0.00 | 0.61 | 0.00 | 31 | 1021.7 |
| 20260505034207 | 20 | 313 | 3.2 | 6.4 | 0.00 | 0.61 | 0.00 | 34 | 1021.7 |
| 20260505033906 | 20 | 313 | 3.2 | 6.4 | 0.00 | 0.61 | 0.00 | 31 | 1021.8 |
| 20260505033006 | 21 | 278 | 3.2 | 6.4 | 0.00 | 0.61 | 0.00 | 29 | 1021.8 |
| 20260505032706 | 20 | 281 | 3.2 | 6.4 | 0.00 | 0.61 | 0.00 | 42 | 1021.9 |
| 20260505032406 | 20 | 305 | 3.2 | 6.4 | 0.00 | 0.61 | 0.00 | 33 | 1021.9 |
| 20260505032106 | 20 | 309 | 3.2 | 6.4 | 0.00 | 0.61 | 0.00 | 33 | 1022.1 |
| 20260505031506 | 20 | 323 | 3.2 | 6.4 | 0.00 | 0.61 | 0.00 | 30 | 1022.1 |
| 20260505030906 | 20 | 303 | 3.2 | 6.4 | 0.00 | 0.61 | 0.00 | 30 | 1022.4 |
| 20260505030606 | 20 | 220 | 1.6 | 9.7 | 0.00 | 0.61 | 0.00 | 42 | 1022.2 |
| 20260505030306 | 20 | 204 | 1.6 | 9.7 | 0.00 | 0.61 | 0.00 | 36 | 1022.2 |
| 20260505030007 | 20 | 183 | 1.6 | 9.7 | 0.00 | 0.61 | 0.00 | 29 | 1022.4 |
| 20260505025706 | 20 | 190 | 6.4 | 9.7 | 0.00 | 0.61 | 0.00 | 36 | 1022.4 |
| 20260505025406 | 20 | 231 | 3.2 | 6.4 | 0.00 | 0.61 | 0.00 | 33 | 1022.4 |
| 20260505025106 | 20 | 236 | 4.8 | 6.4 | 0.00 | 0.61 | 0.00 | 35 | 1022.5 |
| 20260505024806 | 21 | 314 | 1.6 | 6.4 | 0.00 | 0.61 | 0.00 | 39 | 1022.3 |
| 20260505024206 | 20 | 314 | 3.2 | 6.4 | 0.00 | 0.61 | 0.00 | 43 | 1022.6 |
| 20260505023906 | 20 | 312 | 1.6 | 6.4 | 0.00 | 0.61 | 0.00 | 37 | 1022.4 |
| 20260505023606 | 20 | 305 | 3.2 | 9.7 | 0.00 | 0.61 | 0.00 | 33 | 1022.5 |
| 20260505023306 | 20 | 303 | 3.2 | 9.7 | 0.00 | 0.61 | 0.00 | 35 | 1022.7 |
| 20260505022706 | 20 | 305 | 6.4 | 9.7 | 0.00 | 0.61 | 0.00 | 35 | 1022.7 |
| 20260505022407 | 20 | 287 | 1.6 | 6.4 | 0.00 | 0.61 | 0.00 | 39 | 1022.7 |
| 20260505022106 | 20 | 174 | 3.2 | 6.4 | 0.00 | 0.61 | 0.00 | 39 | 1022.9 |
| 20260505021806 | 19 | 175 | 1.6 | 6.4 | 0.00 | 0.61 | 0.00 | 34 | 1023.0 |
| 20260505021506 | 19 | 283 | 3.2 | 6.4 | 0.00 | 0.61 | 0.00 | 31 | 1022.9 |
| 20260505021206 | 20 | 314 | 1.6 | 6.4 | 0.00 | 0.61 | 0.00 | 27 | 1023.1 |
| 20260505020606 | 21 | 311 | 4.8 | 6.4 | 0.00 | 0.61 | 0.00 | 27 | 1023.0 |
| 20260505020306 | 20 | 301 | 0.0 | 6.4 | 0.00 | 0.61 | 0.00 | 40 | 1022.9 |
| 20260505020007 | 20 | 297 | 1.6 | 6.4 | 0.00 | 0.61 | 0.00 | 40 | 1023.3 |
| 20260505015706 | 20 | 285 | 3.2 | 6.4 | 0.00 | 0.61 | 0.00 | 35 | 1023.0 |
| 20260505015406 | 20 | 262 | 4.8 | 6.4 | 0.00 | 0.61 | 0.00 | 38 | 1023.0 |
| 20260505014807 | 20 | 281 | 3.2 | 9.7 | 0.00 | 0.61 | 0.00 | 38 | 1023.1 |
| 20260505014507 | 20 | 298 | 3.2 | 9.7 | 0.00 | 0.61 | 0.00 | 40 | 1023.4 |
| 20260505014207 | 20 | 301 | 3.2 | 9.7 | 0.00 | 0.61 | 0.00 | 43 | 1023.1 |
| 20260505013906 | 20 | 319 | 3.2 | 6.4 | 0.00 | 0.61 | 0.00 | 36 | 1023.4 |
| 20260505013607 | 19 | 328 | 3.2 | 6.4 | 0.00 | 0.61 | 0.00 | 35 | 1023.1 |
| 20260505013007 | 19 | 319 | 1.6 | 6.4 | 0.00 | 0.61 | 0.00 | 28 | 1023.3 |
| 20260505012706 | 19 | 303 | 1.6 | 6.4 | 0.00 | 0.61 | 0.00 | 27 | 1023.2 |
| 20260505012406 | 18 | 303 | 3.2 | 6.4 | 0.00 | 0.61 | 0.00 | 34 | 1023.1 |
| 20260505012108 | 19 | 306 | 3.2 | 6.4 | 0.00 | 0.61 | 0.00 | 36 | 1023.1 |
| 20260505011806 | 19 | 312 | 1.6 | 6.4 | 0.00 | 0.61 | 0.00 | 37 | 1023.0 |
| 20260505011507 | 19 | 313 | 1.6 | 6.4 | 0.00 | 0.61 | 0.00 | 34 | 1023.2 |
| 20260505011206 | 19 | 312 | 0.0 | 3.2 | 0.00 | 0.61 | 0.00 | 39 | 1023.4 |
| 20260505010907 | 19 | 315 | 3.2 | 3.2 | 0.00 | 0.61 | 0.00 | 30 | 1023.4 |
| 20260505010607 | 19 | 304 | 3.2 | 6.4 | 0.00 | 0.61 | 0.00 | 32 | 1023.2 |
| 20260505010306 | 19 | 285 | 0.0 | 6.4 | 0.00 | 0.61 | 0.00 | 38 | 1023.4 |
| 20260505010007 | 19 | 243 | 1.6 | 6.4 | 0.00 | 0.61 | 0.00 | 39 | 1023.3 |
| 20260505005406 | 18 | 132 | 1.6 | 6.4 | 0.00 | 0.61 | 0.00 | 32 | 1023.3 |
| 20260505004806 | 18 | 90 | 3.2 | 6.4 | 0.00 | 0.61 | 0.00 | 38 | 1023.5 |
| 20260505004507 | 18 | 79 | 3.2 | 6.4 | 0.00 | 0.61 | 0.00 | 35 | 1023.3 |
| 20260505004207 | 18 | 81 | 0.0 | 6.4 | 0.00 | 0.61 | 0.00 | 30 | 1023.2 |
| 20260505003906 | 18 | 98 | 1.6 | 6.4 | 0.00 | 0.61 | 0.00 | 37 | 1023.4 |
| 20260505003607 | 18 | 114 | 1.6 | 6.4 | 0.00 | 0.61 | 0.00 | 43 | 1023.2 |
| 20260505003306 | 17 | 95 | 1.6 | 6.4 | 0.00 | 0.61 | 0.00 | 40 | 1023.4 |
| 20260505003007 | 17 | 88 | 1.6 | 6.4 | 0.00 | 0.61 | 0.00 | 35 | 1023.3 |
| 20260505002407 | 17 | 71 | 3.2 | 6.4 | 0.00 | 0.61 | 0.00 | 46 | 1023.3 |
| 20260505002107 | 16 | 77 | 3.2 | 9.7 | 0.00 | 0.61 | 0.00 | 44 | 1023.3 |
| 20260505001807 | 16 | 81 | 3.2 | 11.3 | 0.00 | 0.61 | 0.00 | 45 | 1023.2 |
| 20260505001507 | 16 | 82 | 4.8 | 12.9 | 0.00 | 0.61 | 0.00 | 48 | 1023.2 |
| 20260505001207 | 16 | 82 | 6.4 | 12.9 | 0.00 | 0.61 | 0.00 | 48 | 1023.1 |
| 20260505000906 | 15 | 85 | 4.8 | 12.9 | 0.00 | 0.61 | 0.00 | 51 | 1023.3 |
| 20260505000007 | 15 | 78 | 6.4 | 11.3 | 0.00 | 0.61 | 0.00 | 53 | 1023.3 |
| 20260504235706 | 15 | 83 | 8.0 | 14.5 | 0.00 | 0.61 | 0.00 | 54 | 1023.3 |
| 20260504235406 | 15 | 81 | 6.4 | 14.5 | 0.00 | 0.61 | 0.00 | 55 | 1023.3 |
| 20260504235107 | 14 | 80 | 6.4 | 14.5 | 0.00 | 0.61 | 0.00 | 58 | 1022.8 |
| 20260504234806 | 14 | 78 | 6.4 | 17.7 | 0.00 | 0.61 | 0.00 | 57 | 1023.1 |
| 20260504234506 | 14 | 85 | 9.7 | 17.7 | 0.00 | 0.61 | 0.00 | 58 | 1023.2 |
| 20260504234207 | 13 | 82 | 6.4 | 17.7 | 0.00 | 0.61 | 0.00 | 60 | 1023.2 |
| 20260504233906 | 13 | 86 | 9.7 | 17.7 | 0.00 | 0.61 | 0.00 | 61 | 1023.2 |
| 20260504233607 | 13 | 90 | 9.7 | 17.7 | 0.00 | 0.61 | 0.00 | 62 | 1023.1 |
| 20260504233306 | 13 | 90 | 6.4 | 17.7 | 0.00 | 0.61 | 0.00 | 61 | 1022.9 |
| 20260504233007 | 13 | 88 | 8.0 | 17.7 | 0.00 | 0.61 | 0.00 | 62 | 1023.0 |
| 20260504232706 | 13 | 76 | 6.4 | 14.5 | 0.00 | 0.61 | 0.00 | 63 | 1023.1 |
| 20260504232406 | 13 | 76 | 8.0 | 14.5 | 0.00 | 0.61 | 0.00 | 65 | 1023.2 |
| 20260504232106 | 13 | 77 | 9.7 | 17.7 | 0.00 | 0.61 | 0.00 | 64 | 1023.1 |
| 20260504231507 | 12 | 77 | 8.0 | 17.7 | 0.00 | 0.61 | 0.00 | 64 | 1023.2 |
| 20260504231206 | 12 | 76 | 8.0 | 17.7 | 0.00 | 0.61 | 0.00 | 65 | 1023.1 |
| 20260504230906 | 12 | 79 | 8.0 | 17.7 | 0.00 | 0.61 | 0.00 | 65 | 1023.2 |
| 20260504230606 | 12 | 76 | 6.4 | 20.9 | 0.00 | 0.61 | 0.00 | 65 | 1023.1 |
| 20260504230006 | 11 | 84 | 8.0 | 20.9 | 0.00 | 0.61 | 0.00 | 66 | 1022.8 |
| 20260504225406 | 11 | 83 | 9.7 | 20.9 | 0.00 | 0.61 | 0.00 | 68 | 1022.7 |
| 20260504225107 | 11 | 82 | 9.7 | 20.9 | 0.00 | 0.61 | 0.00 | 68 | 1022.8 |
| 20260504224806 | 11 | 82 | 12.9 | 20.9 | 0.00 | 0.61 | 0.00 | 68 | 1023.1 |
| 20260504224506 | 11 | 77 | 11.3 | 20.9 | 0.00 | 0.61 | 0.00 | 69 | 1022.7 |
| 20260504224206 | 11 | 77 | 11.3 | 20.9 | 0.00 | 0.61 | 0.00 | 69 | 1022.8 |
| 20260504223907 | 11 | 81 | 9.7 | 20.9 | 0.00 | 0.61 | 0.00 | 68 | 1022.7 |
| 20260504223606 | 11 | 81 | 11.3 | 20.9 | 0.00 | 0.61 | 0.00 | 70 | 1022.6 |
| 20260504223306 | 11 | 81 | 11.3 | 20.9 | 0.00 | 0.61 | 0.00 | 70 | 1022.8 |
| 20260504223007 | 10 | 76 | 9.7 | 20.9 | 0.00 | 0.61 | 0.00 | 71 | 1022.6 |
| 20260504222706 | 10 | 71 | 8.0 | 17.7 | 0.00 | 0.61 | 0.00 | 71 | 1022.7 |
| 20260504222406 | 10 | 66 | 11.3 | 17.7 | 0.00 | 0.61 | 0.00 | 71 | 1022.6 |
| 20260504222106 | 10 | 62 | 8.0 | 22.5 | 0.00 | 0.61 | 0.00 | 71 | 1022.6 |
| 20260504221806 | 10 | 64 | 11.3 | 22.5 | 0.00 | 0.61 | 0.00 | 71 | 1022.5 |
| 20260504221506 | 10 | 67 | 12.9 | 22.5 | 0.00 | 0.61 | 0.00 | 72 | 1022.6 |
| 20260504220907 | 10 | 72 | 11.3 | 27.4 | 0.00 | 0.61 | 0.00 | 72 | 1022.6 |
| 20260504220306 | 10 | 74 | 11.3 | 24.1 | 0.00 | 0.61 | 0.00 | 74 | 1022.5 |
| 20260504215705 | 10 | 80 | 12.9 | 24.1 | 0.00 | 0.61 | 0.00 | 73 | 1022.5 |
| 20260504215406 | 9 | 81 | 12.9 | 22.5 | 0.00 | 0.61 | 0.00 | 74 | 1022.6 |
| 20260504215106 | 9 | 78 | 9.7 | 22.5 | 0.00 | 0.61 | 0.00 | 75 | 1022.6 |
| 20260504214806 | 8 | 75 | 9.7 | 22.5 | 0.00 | 0.61 | 0.00 | 76 | 1022.3 |
| 20260504214506 | 8 | 74 | 8.0 | 22.5 | 0.00 | 0.61 | 0.00 | 78 | 1022.3 |
| 20260504214207 | 8 | 81 | 12.9 | 22.5 | 0.00 | 0.61 | 0.00 | 78 | 1022.3 |
| 20260504213606 | 8 | 84 | 9.7 | 20.9 | 0.00 | 0.61 | 0.00 | 79 | 1022.0 |
| 20260504213306 | 8 | 80 | 8.0 | 22.5 | 0.00 | 0.61 | 0.00 | 79 | 1022.4 |
| 20260504212706 | 8 | 72 | 9.7 | 22.5 | 0.00 | 0.61 | 0.00 | 79 | 1021.9 |
| 20260504212406 | 8 | 75 | 14.5 | 22.5 | 0.00 | 0.61 | 0.00 | 79 | 1022.0 |
| 20260504212106 | 8 | 80 | 12.9 | 22.5 | 0.00 | 0.61 | 0.00 | 80 | 1022.1 |
| 20260504211807 | 8 | 88 | 14.5 | 22.5 | 0.00 | 0.61 | 0.00 | 81 | 1022.0 |
| 20260504211507 | 8 | 85 | 12.9 | 22.5 | 0.00 | 0.61 | 0.00 | 80 | 1021.8 |
| 20260504211206 | 8 | 83 | 16.1 | 22.5 | 0.00 | 0.61 | 0.00 | 81 | 1021.9 |
| 20260504210906 | 7 | 80 | 11.3 | 22.5 | 0.00 | 0.61 | 0.00 | 82 | 1022.0 |
| 20260504210307 | 7 | 84 | 8.0 | 24.1 | 0.00 | 0.61 | 0.00 | 82 | 1021.8 |
| 20260504210008 | 7 | 81 | 12.9 | 24.1 | 0.00 | 0.61 | 0.00 | 83 | 1021.8 |
| 20260504205707 | 7 | 77 | 16.1 | 24.1 | 0.00 | 0.61 | 0.00 | 83 | 1021.8 |
| 20260504205106 | 7 | 69 | 12.9 | 22.5 | 0.00 | 0.61 | 0.00 | 82 | 1021.6 |
| 20260504204806 | 7 | 74 | 11.3 | 25.7 | 0.00 | 0.61 | 0.00 | 83 | 1021.6 |
| 20260504204506 | 7 | 72 | 12.9 | 25.7 | 0.00 | 0.61 | 0.00 | 83 | 1021.5 |
| 20260504204206 | 7 | 72 | 14.5 | 25.7 | 0.00 | 0.61 | 0.00 | 83 | 1021.5 |
| 20260504203906 | 7 | 73 | 14.5 | 25.7 | 0.00 | 0.61 | 0.00 | 84 | 1021.5 |
| 20260504203606 | 7 | 78 | 12.9 | 24.1 | 0.00 | 0.61 | 0.00 | 84 | 1021.2 |
| 20260504203006 | 7 | 87 | 12.9 | 24.1 | 0.00 | 0.61 | 0.00 | 84 | 1021.5 |
| 20260504202406 | 7 | 90 | 14.5 | 24.1 | 0.00 | 0.61 | 0.00 | 85 | 1021.3 |
| 20260504202106 | 7 | 85 | 11.3 | 24.1 | 0.00 | 0.61 | 0.00 | 84 | 1021.3 |
| 20260504201506 | 7 | 79 | 12.9 | 24.1 | 0.00 | 0.61 | 0.00 | 85 | 1021.3 |
| 20260504201206 | 7 | 63 | 11.3 | 25.7 | 0.00 | 0.61 | 0.00 | 85 | 1021.4 |
| 20260504200906 | 7 | 74 | 11.3 | 25.7 | 0.00 | 0.61 | 0.00 | 85 | 1021.4 |
| 20260504200606 | 7 | 80 | 12.9 | 25.7 | 0.00 | 0.61 | 0.00 | 85 | 1021.2 |
| 20260504200308 | 7 | 76 | 9.7 | 24.1 | 0.00 | 0.61 | 0.00 | 85 | 1021.2 |
| 20260504200007 | 7 | 81 | 9.7 | 24.1 | 0.00 | 0.61 | 0.00 | 86 | 1021.2 |
| 20260504195706 | 7 | 79 | 11.3 | 24.1 | 0.00 | 0.61 | 0.00 | 86 | 1021.1 |
| 20260504195406 | 7 | 82 | 12.9 | 24.1 | 0.00 | 0.61 | 0.00 | 86 | 1021.1 |
| 20260504194806 | 7 | 72 | 6.4 | 22.5 | 0.00 | 0.61 | 0.00 | 86 | 1021.0 |
| 20260504194207 | 7 | 74 | 9.7 | 22.5 | 0.00 | 0.61 | 0.00 | 87 | 1021.1 |
| 20260504193906 | 7 | 79 | 12.9 | 22.5 | 0.00 | 0.61 | 0.00 | 87 | 1021.1 |
| 20260504193606 | 7 | 86 | 11.3 | 17.7 | 0.00 | 0.61 | 0.00 | 87 | 1021.0 |
| 20260504193306 | 7 | 84 | 6.4 | 20.9 | 0.00 | 0.61 | 0.00 | 87 | 1021.1 |
| 20260504193006 | 7 | 77 | 9.7 | 20.9 | 0.00 | 0.61 | 0.00 | 87 | 1021.1 |
| 20260504192706 | 7 | 71 | 12.9 | 20.9 | 0.00 | 0.61 | 0.00 | 87 | 1021.0 |
| 20260504192406 | 7 | 65 | 6.4 | 20.9 | 0.00 | 0.61 | 0.00 | 87 | 1021.1 |
| 20260504192106 | 7 | 72 | 8.0 | 17.7 | 0.00 | 0.61 | 0.00 | 88 | 1020.8 |
| 20260504191506 | 7 | 85 | 9.7 | 17.7 | 0.00 | 0.61 | 0.00 | 87 | 1020.9 |
| 20260504190907 | 7 | 84 | 8.0 | 17.7 | 0.00 | 0.61 | 0.00 | 88 | 1020.8 |
| 20260504190606 | 7 | 75 | 8.0 | 17.7 | 0.00 | 0.61 | 0.00 | 88 | 1020.9 |
| 20260504190306 | 7 | 74 | 8.0 | 17.7 | 0.00 | 0.64 | 0.00 | 88 | 1020.8 |
| 20260504185706 | 7 | 73 | 8.0 | 22.5 | 0.00 | 0.64 | 0.00 | 89 | 1020.9 |
| 20260504185406 | 7 | 78 | 8.0 | 22.5 | 0.00 | 0.64 | 0.00 | 89 | 1020.8 |
| 20260504185106 | 7 | 78 | 6.4 | 17.7 | 0.00 | 0.64 | 0.00 | 89 | 1020.7 |
| 20260504184806 | 7 | 66 | 11.3 | 17.7 | 0.00 | 0.64 | 0.00 | 90 | 1020.6 |
| 20260504184506 | 7 | 75 | 8.0 | 17.7 | 0.00 | 0.64 | 0.00 | 90 | 1020.6 |
| 20260504184208 | 7 | 77 | 6.4 | 17.7 | 0.00 | 0.66 | 0.00 | 90 | 1020.6 |
| 20260504183905 | 7 | 83 | 9.7 | 22.5 | 0.00 | 0.66 | 0.00 | 90 | 1020.4 |
| 20260504183607 | 7 | 79 | 6.4 | 22.5 | 0.00 | 0.69 | 0.00 | 90 | 1020.6 |
| 20260504183306 | 7 | 72 | 6.4 | 22.5 | 0.00 | 0.69 | 0.00 | 90 | 1020.6 |
| 20260504183006 | 7 | 78 | 12.9 | 22.5 | 0.00 | 0.71 | 0.00 | 90 | 1020.4 |
| 20260504182406 | 7 | 89 | 8.0 | 17.7 | 0.00 | 0.76 | 0.00 | 90 | 1020.3 |
| 20260504182106 | 7 | 89 | 9.7 | 17.7 | 0.00 | 0.76 | 0.00 | 90 | 1020.4 |
| 20260504181506 | 7 | 95 | 11.3 | 17.7 | 0.00 | 0.76 | 0.00 | 91 | 1020.5 |
| 20260504181207 | 7 | 87 | 8.0 | 17.7 | 0.00 | 0.76 | 0.00 | 91 | 1020.3 |
| 20260504180906 | 7 | 82 | 9.7 | 17.7 | 0.00 | 0.76 | 0.00 | 91 | 1020.5 |
| 20260504180306 | 7 | 72 | 6.4 | 17.7 | 0.00 | 0.76 | 0.00 | 91 | 1020.4 |
| 20260504180007 | 7 | 79 | 11.3 | 17.7 | 0.00 | 0.76 | 0.00 | 91 | 1020.4 |
| 20260504175106 | 7 | 75 | 6.4 | 14.5 | 0.00 | 0.76 | 0.00 | 91 | 1020.3 |
| 20260504174806 | 7 | 79 | 4.8 | 14.5 | 0.00 | 0.76 | 0.00 | 91 | 1020.0 |
| 20260504174506 | 7 | 77 | 8.0 | 14.5 | 0.00 | 0.79 | 0.00 | 91 | 1020.3 |
| 20260504174207 | 7 | 74 | 9.7 | 14.5 | 0.00 | 0.79 | 0.00 | 91 | 1020.2 |
| 20260504173906 | 7 | 74 | 6.4 | 14.5 | 0.00 | 0.79 | 0.00 | 91 | 1020.2 |
| 20260504173606 | 7 | 78 | 6.4 | 14.5 | 0.00 | 0.81 | 0.00 | 91 | 1020.1 |
| 20260504173306 | 8 | 76 | 4.8 | 14.5 | 0.00 | 0.84 | 0.00 | 91 | 1020.1 |
| 20260504173007 | 8 | 81 | 6.4 | 14.5 | 0.00 | 0.84 | 0.00 | 91 | 1020.0 |
| 20260504172706 | 8 | 84 | 6.4 | 14.5 | 0.00 | 0.86 | 0.00 | 91 | 1019.8 |
| 20260504172407 | 8 | 90 | 6.4 | 17.7 | 0.00 | 0.89 | 0.00 | 91 | 1019.9 |
| 20260504171506 | 8 | 85 | 8.0 | 17.7 | 0.00 | 0.94 | 0.00 | 92 | 1019.7 |
| 20260504171206 | 8 | 81 | 9.7 | 17.7 | 0.00 | 0.97 | 0.00 | 92 | 1020.2 |
| 20260504170906 | 8 | 84 | 6.4 | 11.3 | 0.00 | 0.97 | 0.00 | 92 | 1020.0 |
| 20260504170606 | 8 | 82 | 4.8 | 11.3 | 0.00 | 0.97 | 0.00 | 92 | 1019.8 |
| 20260504160308 | 8 | 79 | 4.8 | 6.4 | 0.00 | 1.02 | 0.00 | 93 | 1019.7 |
| 20260504150906 | 9 | 87 | 1.6 | 3.2 | 0.00 | 1.04 | 0.00 | 95 | 1019.8 |
| 20260504150607 | 9 | 85 | 3.2 | 3.2 | 0.00 | 1.04 | 0.00 | 95 | 1020.1 |
| 20260504150307 | 9 | 87 | 1.6 | 3.2 | 0.00 | 1.09 | 0.00 | 95 | 1019.7 |
| 20260504140906 | 10 | 140 | 0.0 | 3.2 | 0.00 | 1.09 | 1.09 | 94 | 1019.4 |
| 20260504140606 | 10 | 139 | 1.6 | 3.2 | 0.00 | 1.09 | 1.09 | 93 | 1019.6 |
| 20260504140306 | 10 | 157 | 1.6 | 3.2 | 0.00 | 1.09 | 1.09 | 93 | 1019.5 |